STARLINK-3692, 51958

Orbit data source: Space-Track

STARLINK-3692, 51958 is a payload satellite owned by SpaceX/Seattle (US) in LEO that was launched on Wed, 09 Mar 2022 UTC via an FALCON 9 launch vehicle from the Air Force Eastern Test Range (AFETR). Payload-class satellites include a variety of spacecraft equipped with specific instruments for various scientific and technological missions. These include communications satellites like Starlink; space stations such as the ISS; scientific satellites like the Hubble; Earth observation satellites from companies like Planet Labs, Umbra, and HawkEye 360; GPS; miniature CubeSats for education and research; and military/defense satellites.

Loading next visibility...
Identifier
51958, 2022-025C
Orbit
LEO
Country
Flag of USUS
Related business
Manufacturer
SpaceX/Seattle
Mission
Operational Commercial Communications
Bus & Motor
STARLINK, Unknown motor
Mass
297 kg wet, ~275 kg dry
Launch date (UTC)
2022-03-09 (4 years ago)
Launch vehicle
FALCON 9
Launch site
Air Force Eastern Test Range (AFETR)
Object type
Payload
Rocket body
Debris
Shape & HBR
Box + 1 Pan, 10.1 m
Radar Cross Section
13.562 m², Large (>1 m²)

Expand to show TLE details & history
Last TLE update: 18 hours ago

TLE from 18 hours ago
0 STARLINK-3692
1 51958U 22025C   25346.60757059 -.00001106  00000-0 -55419-4 0  9996
2 51958  53.0552  52.5550 0001399  92.9487 267.1662 15.06386057207924
Epoch: 2025-12-12T14:34Z
TLE epoch observation values (Epoch: 2025-12-12T14:34:54.098Z)
Latitude
-0.00005°
Longitude
112.28279°
Altitude
548.182 km
Speed
7.589 km/s
True Right ascension
03h 30m 13s
True Declination
0° 00' 00"
Sunlit
Object was in full shadow at epoch
Visualization orbit readout
Latitude
Unknown
Longitude
Unknown
Altitude
Unknown
Speed
Unknown
Apparent Right ascension
Unknown
Apparent Declination
Unknown
Sunlit
N/A
Visualization observer readout
Local Sidereal Time
07:28:05
Azimuth
Unknown
Elevation
Unknown
Doppler factor
Unknown
Orbital elements
Apogee altitude
548.494 km
Perigee altitude
546.556 km
Semi-major axis
6,925.662 km
Eccentricity
0.00014
Inclination
53.0552°
RAAN
52.555°
Arg. of periapsis
92.9487°
True anomaly
267.15019°
Mean anomaly
267.1662°
Eccentric anomaly
267.15819°
Mean motion
3.76575 °/min
Orbital period
95.6 mins
BSTAR
-0.000055419
Loading maneuver chart data...
Computing Atmospheric mass density...
Loading historical data...
Loading historical data...
Loading historical data...
Loading historical data...
Loading historical data...
Loading historical data...
Loading historical data...

Documentation

Showing up to 5 results
|